STARLINK-3649, 51980

Orbit data source: Space-Track

STARLINK-3649, 51980 is a payload satellite owned by SpaceX/Seattle (US) in LEO that was launched on Wed, 09 Mar 2022 UTC via an FALCON 9 launch vehicle from the Air Force Eastern Test Range (AFETR). Payload-class satellites include a variety of spacecraft equipped with specific instruments for various scientific and technological missions. These include communications satellites like Starlink; space stations such as the ISS; scientific satellites like the Hubble; Earth observation satellites from companies like Planet Labs, Umbra, and HawkEye 360; GPS; miniature CubeSats for education and research; and military/defense satellites.

Loading next visibility...
Identifier
51980, 2022-025AA
Orbit
LEO
Country
Flag of USUS
Related business
Manufacturer
SpaceX/Seattle
Mission
Operational Commercial Communications
Bus & Motor
STARLINK, Unknown motor
Mass
297 kg wet, ~275 kg dry
Launch date (UTC)
2022-03-09 (4 years ago)
Launch vehicle
FALCON 9
Launch site
Air Force Eastern Test Range (AFETR)
Object type
Payload
Rocket body
Debris
Shape & HBR
Box + 1 Pan, 10.1 m
Radar Cross Section
13.562 m², Large (>1 m²)

Expand to show TLE details & history
Last TLE update: 3 days ago

TLE from 3 days ago
0 STARLINK-3649
1 51980U 22025AA  26170.74279672  .00000523  00000-0  50964-4 0  9992
2 51980  53.1616 300.8731 0001174  90.9727 269.1399 15.08834193236468
Epoch: 2026-06-19T17:49Z
TLE epoch observation values (Epoch: 2026-06-19T17:49:37.636Z)
Latitude
-0.00002°
Longitude
125.49887°
Altitude
540.665 km
Speed
7.593 km/s
True Right ascension
20h 03m 29s
True Declination
0° 00' 00"
Sunlit
Object was in full shadow at epoch
Visualization orbit readout
Latitude
Unknown
Longitude
Unknown
Altitude
Unknown
Speed
Unknown
Apparent Right ascension
Unknown
Apparent Declination
Unknown
Sunlit
N/A
Visualization observer readout
Local Sidereal Time
21:42:42
Azimuth
Unknown
Elevation
Unknown
Doppler factor
Unknown
Orbital elements
Apogee altitude
540.827 km
Perigee altitude
539.203 km
Semi-major axis
6,918.152 km
Eccentricity
0.00012
Inclination
53.1616°
RAAN
300.8731°
Arg. of periapsis
90.9727°
True anomaly
269.12645°
Mean anomaly
269.1399°
Eccentric anomaly
269.13317°
Mean motion
3.77188 °/min
Orbital period
95.44 mins
BSTAR
0.000050964
Loading maneuver chart data...
Computing Atmospheric mass density...
Loading historical data...
Loading historical data...
Loading historical data...
Loading historical data...
Loading historical data...
Loading historical data...
Loading historical data...

Documentation

Showing up to 5 results
|